Theta_e
307 307 308 308 309 310 310 312 313 314 314 320 322 323 322 321 321 321 320 320 319 318
301 304 306 308 310 310 310 309 311 310 309 313 322 323 323 321 320 320 320 319 319 318
297 298 300 304 305 307 308 306 305 303 302 305 313 318 318 317 317 319 317 316 317 313
294 296 297 298 300 302 301 299 301 299 299 299 300 304 302 300 300 300 299 300 301 298
292 293 294 295 297 298 295 296 298 296 295 296 298 300 297 296 296 296 295 295 295 295
288 289 290 291 293 294 293 293 293 293 292 292 293 293 293 291 290 290 290 291 291 293
285 287 288 289 291 291 292 291 290 290 290 291 291 291 290 289 287 287 287 288 288 289
284 286 286 286 287 288 288 287 287 287 287 288 288 288 288 287 286 286 285 285 285 286
284 284 285 285 285 286 286 286 285 285 285 285 285 287 287 285 283 283 282 282 282 283
283 283 283 284 284 284 284 284 284 284 284 284 284 286 286 285 283 282 282 282 282 281
282 282 282 282 282 283 283 283 283 283 283 284 284 286 286 285 283 283 283 283 282 282
281 281 281 281 281 282 282 283 283 283 283 283 284 286 286 284 283 282 282 282 282 282
282 282 281 282 282 282 283 283 283 283 283 284 284 286 286 284 283 282 282 283 283 283
280 281 282 282 283 283 283 283 282 283 284 284 284 284 285 285 283 282 282 282 282 282
Wind_Speed
7 4 6 8 6 6 4 5 3 5 8 11 12 14 12 10 9 11 10 13 9 7
7 7 7 8 6 5 4 4 4 6 7 16 15 16 12 8 11 10 11 11 11 10
7 7 8 8 8 4 1 3 5 5 7 8 5 6 8 9 5 10 7 6 8 4
7 7 8 7 6 3 3 5 5 6 6 5 5 3 7 7 7 7 6 5 6 5
8 7 6 5 3 3 4 5 5 6 10 6 2 3 9 10 8 9 9 8 9 7
6 5 5 4 3 1 10 4 3 8 9 3 4 10 11 11 12 10 10 11 10 8
6 4 4 4 5 6 11 5 8 13 11 5 6 10 13 13 13 14 12 11 11 11
5 5 5 5 7 11 9 9 8 14 9 3 11 6 15 13 13 13 12 10 13 13
7 8 8 8 12 10 11 11 11 13 5 12 9 24 20 14 11 11 11 10 10 9
10 11 10 12 10 11 12 14 14 10 9 13 18 23 21 16 10 13 12 10 8 8
12 13 13 12 10 8 9 15 12 11 13 17 15 21 19 15 11 13 12 11 9 9
14 14 13 13 11 9 13 14 12 11 14 15 12 16 15 13 10 12 13 11 9 9
14 12 13 10 8 8 10 13 10 14 14 13 12 17 15 11 6 11 9 9 10 18
9 9 8 7 7 8 10 10 12 14 12 14 13 14 17 16 7 7 7 6 7 9
Wind_Direction
312 273 270 258 257 263 282 257 279 352 8 279 203 210 198 198 196 198 204 206 197 205
325 314 305 292 291 262 267 325 332 45 347 316 199 206 192 198 204 195 195 205 208 215
335 315 299 288 272 280 328 21 343 55 17 339 307 205 169 185 167 196 197 195 196 174
333 317 297 293 297 334 41 43 308 55 91 13 354 116 97 84 80 86 83 65 91 84
325 325 310 299 324 352 59 55 307 78 70 40 359 94 86 86 71 84 81 86 70 61
349 347 334 345 3 297 81 59 39 60 71 60 49 76 85 80 81 78 70 69 79 74
6 5 20 23 56 69 83 69 63 55 50 352 88 86 88 86 80 74 66 66 71 65
16 22 42 44 63 68 78 71 74 75 67 36 71 86 87 89 90 90 87 74 70 68
34 46 54 55 57 65 72 77 79 70 104 87 86 75 82 85 87 84 77 71 66 66
41 56 51 50 63 74 84 73 66 73 73 77 69 75 74 71 80 83 77 72 69 67
47 50 54 56 56 70 99 91 82 68 65 70 66 70 77 76 74 75 73 65 56 66
37 44 47 53 44 48 63 72 71 71 74 73 74 74 73 74 71 75 64 58 53 64
25 36 40 38 36 45 59 68 73 70 64 73 74 63 67 70 76 76 76 64 67 66
25 42 37 38 46 52 63 71 69 68 60 60 60 56 59 63 66 74 81 79 67 64